THORAD AGENA D DEB, 4672

Orbit data source: Space-Track

THORAD AGENA D DEB, 4672 is space debris in SSO originally from a launch on Wed, 08 Apr 1970 UTC launched from the Air Force Western Test Range (AFWTR). Debris objects in space refer to the collection of defunct objects orbiting the Earth. Examples of debris include non-operational satellites, rocket bodies, and fragments generated from explosions, collisions, or faulty payload assembly.

Loading next visibility...
Identifier
4672, 1970-025AV
Orbit
SSO
Country
Flag of USUS
Related business
Manufacturer
Unknown
Mission
Spacecraft
Bus & Motor
Unknown
Mass
Unknown
Launch date (UTC)
1970-04-08 (56 years ago)
Launch vehicle
Unknown
Launch site
Air Force Western Test Range (AFWTR)
Object type
Payload
Rocket body
Debris
Shape & HBR
Unknown shape, 0.1 m
Radar Cross Section
Small (<0.1 m²)

Expand to show TLE details & history
Last TLE update: 2 days ago

TLE from 2 days ago
0 THORAD AGENA D DEB
1 04672U 70025AV  26121.05492994  .00000268  00000-0  44513-3 0  9993
2 04672  99.3888 322.8056 0038014 173.5595 338.6096 13.55425753763475
Epoch: 2026-05-01T01:19Z
TLE epoch observation values (Epoch: 2026-05-01T01:19:05.946Z)
Latitude
27.62418°
Longitude
-91.02353°
Altitude
1,029.363 km
Speed
7.352 km/s
True Right ascension
09h 50m 58s
True Declination
27° 29' 18"
Sunlit
Object was in daylight at epoch
Visualization orbit readout
Latitude
Unknown
Longitude
Unknown
Altitude
Unknown
Speed
Unknown
Apparent Right ascension
Unknown
Apparent Declination
Unknown
Sunlit
N/A
Visualization observer readout
Local Sidereal Time
13:53:48
Azimuth
Unknown
Elevation
Unknown
Doppler factor
Unknown
Orbital elements
Apogee altitude
1,077.877 km
Perigee altitude
1,021.405 km
Semi-major axis
7,427.778 km
Eccentricity
0.0038
Inclination
99.3888°
RAAN
322.8056°
Arg. of periapsis
173.5595°
True anomaly
338.45002°
Mean anomaly
338.6096°
Eccentric anomaly
338.52988°
Mean motion
3.39043 °/min
Orbital period
106.18 mins
BSTAR
0.00044513
Loading maneuver chart data...
Computing Atmospheric mass density...

Documentation

Showing up to 5 results
|